Tracking 17631 objects as of 5-May-2016
HD Live streaming from Space Station
objects crossing your sky now

BREEZE-M DEB

Track BREEZE-M DEB now!
10-day predictions


NORAD ID: 34250
Int'l Code: 2006-006BR
Perigee: 491.5 km
Apogee: 14,757.5 km
Inclination: 51.7 °
Period: 274.6 minutes
Semi major axis: 13995 km
RCS: 0.0694 m2 (small)
Launch date: February 28, 2006
Source: Commonwealth of Independent States (former USSR) (CIS)
Launch site: TYURATAM MISSILE AND SPACE COMPLEX (TTMTR)

Note: This is SATELLITE DEBRIS
Your satellite tracking list
Your tracking list is empty





NASA's NSSDC Master Catalog

Two Line Element Set (TLE):
1 34250U 06006BR  16121.90601057  .00000914  00000-0  13908-2 0  9992
2 34250  51.7430 338.1303 5096653 174.7507 193.9674  5.24351154160479
Source of the keplerian elements: AFSPC

N2YO: 267